{"data":{"norad_id":59557,"intl_designator":"2024-075A","name":"YAOGAN-42 02","alt_names":[],"object_type":"PAYLOAD","status":"ACTIVE","operator":null,"country":"PRC","launch_date":"2024-04-20","launch_site_code":"XICLF","launch_vehicle":null,"mission":null,"orbit_class":"UNKNOWN","rcs_meters":null,"size_class":null,"mass_kg":null,"dimensions":null,"purposes":[],"wikipedia_slug":null,"has_3d_model":false,"image_url":null,"decayed_at":null,"tle_current":{"epoch":"2026-09-22T13:59:34.999008Z","epoch_age_seconds":85978,"freshness":"FRESH","line1":"1 59557U 24075A   26265.58304397  .00006437  00000+0  27067-3 0  9993","line2":"2 59557  35.0020  17.0874 0005172 323.4277  36.6084 15.22718315134946","mean_motion":15.22718315,"eccentricity":0.0005172,"inclination_deg":35.002,"raan_deg":17.0874,"arg_perigee_deg":323.4277,"mean_anomaly_deg":36.6084,"bstar":0.00027067,"rev_number":13494,"period_min":94.567720491364,"perigee_km":494.08929411584,"apogee_km":501.20160348088,"semimajor_km":6875.7824487984,"source":"CELESTRAK","updated_at":"2026-09-23T09:00:19.430360Z"}}}